Location: Les Coudrans
(46.1056°N, 1.1158°W)
Time: 15:22:57
(UTC+00:00)

COSMOS 2428 - Pass Details

Date: 03 March 2021
Orbit: 845 x 858 km, 70.9° (Epoch: 18 April)

Event Time Altitude Azimuth Distance (km) Brightness Sun altitude
Rises 19:16:23 0° 170° (S) 3,390 5.7 -15.1°
Reaches altitude 10° 19:19:09 10° 159° (SSE) 2,460 4.8 -15.6°
Maximum altitude 19:23:48 27° 103° (ESE) 1,570 3.5 -16.4°
Enters shadow 19:24:45 26° 87° (E) 1,618 3.6 -16.5°
